{"data":{"norad_id":61877,"epoch":"2026-09-21T19:18:44.249184Z","epoch_age_seconds":75708,"freshness":"FRESH","line1":"1 61877U 24204D   26264.80467881 -.00004057  00000+0 -28622-4 0  9994","line2":"2 61877  53.1593 109.7135 0000937  86.7711 273.3415 15.69726977107701","mean_motion":15.69726977,"eccentricity":9.37e-5,"inclination_deg":53.1593,"raan_deg":109.7135,"arg_perigee_deg":86.7711,"mean_anomaly_deg":273.3415,"bstar":-2.8622e-5,"rev_number":10770,"period_min":91.735698060823,"perigee_km":359.04683590073,"apogee_km":360.30950246344,"semimajor_km":6737.8151691821,"source":"CELESTRAK","updated_at":"2026-09-22T09:00:49.445011Z"}}